{"data":{"norad_id":60462,"epoch":"2026-09-22T16:32:24.587808Z","epoch_age_seconds":97122,"freshness":"FRESH","line1":"1 60462U 24148E   26265.68917347  .00006877  00000+0  28593-3 0  9990","line2":"2 60462  34.9923 266.9449 0002192  17.5709 342.5081 15.23095514117033","mean_motion":15.23095514,"eccentricity":0.0002192,"inclination_deg":34.9923,"raan_deg":266.9449,"arg_perigee_deg":17.5709,"mean_anomaly_deg":342.5081,"bstar":0.00028593,"rev_number":11703,"period_min":94.544300522442,"perigee_km":495.00327435927,"apogee_km":498.01711969044,"semimajor_km":6874.6471970249,"source":"CELESTRAK","updated_at":"2026-09-23T09:00:20.619214Z"}}